View from above orbital plane
|
View from above satellite
|
Ground track
|
The orbit data is extracted from the following two-line orbital elements,
1 36416U 10009D 21110.36861332 -.00000058 00000-0 23853-4 0 9996
2 36416 63.4193 95.5877 0525241 355.5399 4.1051 13.69591071556376
Epoch (UTC): | 20 April 2021 08:50:48 |
Eccentricity: | 0.0525241 |
inclination: | 63.4193° |
perigee height: | 613 km |
apogee height: | 1388 km |
right ascension of ascending node: | 95.5877° |
argument of perigee: | 355.5399° |
revolutions per day: | 13.69591071 |
mean anomaly at epoch: | 4.1051° |
orbit number at epoch: | 55637 |
The dashed part of the orbit path shows where the satellite is in the earth's shadow,
|
|